Date,TemperatureHighF,TemperatureAvgF,TemperatureLowF,DewpointHighF,DewpointAvgF,DewpointLowF,HumidityHigh,HumidityAvg,HumidityLow,PressureMaxIn,PressureMinIn,WindSpeedMaxMPH,WindSpeedAvgMPH,GustSpeedMaxMPH,PrecipitationSumIn
2014-1-1,18.7,7.9,-2.0,1.8,-2.3,-9.4,87,64,47,30.32,30.11,10,1,10,0.00
2014-1-2,0.1,-2.2,-3.3,-5.1,-8.4,-13.1,79,74,54,30.32,29.95,15,8,15,0.00
2014-1-3,5.6,-0.3,-8.0,-0.4,-10.1,-21.5,83,64,47,30.36,29.81,14,3,14,0.00
2014-1-4,16.7,1.0,-13.3,10.2,-6.5,-20.4,86,71,42,30.42,30.22,4,0,4,0.00
2014-1-5,31.2,15.4,-2.8,25.6,7.1,-5.8,100,72,41,30.30,30.00,4,0,4,0.00
2014-1-6,47.2,31.1,22.1,47.1,27.9,7.0,100,89,51,30.00,29.36,14,3,14,0.01
2014-1-7,22.4,7.7,0.0,9.7,-9.7,-18.0,59,44,35,30.12,29.44,15,6,15,0.00
2014-1-8,16.7,7.3,0.0,4.7,-5.4,-17.0,59,55,44,30.40,30.12,8,2,8,0.00
2014-1-9,21.6,8.6,-2.0,11.5,-1.6,-9.6,91,65,39,30.61,30.38,10,1,10,0.00
2014-1-10,24.0,11.2,-2.7,20.6,7.9,-6.8,91,86,82,30.59,30.29,4,0,4,0.00
2014-1-11,41.9,28.2,19.6,41.9,27.2,15.3,100,96,83,30.29,29.22,1,0,3,0.28
2014-1-12,41.6,37.2,32.3,41.6,25.5,17.4,100,63,49,29.91,29.24,8,2,15,0.79
2014-1-13,41.9,34.3,23.9,30.2,23.0,16.2,91,65,43,30.09,29.86,2,0,7,0.06
2014-1-14,37.8,35.1,31.8,34.9,30.6,25.9,100,84,75,29.86,29.63,1,0,3,0.56
2014-1-15,40.7,32.7,26.5,33.9,28.6,22.1,100,86,59,29.99,29.71,1,0,4,0.01
2014-1-16,33.2,31.2,30.1,30.6,29.5,27.4,100,94,88,29.92,29.85,5,0,5,0.01
2014-1-17,37.9,31.1,24.6,33.1,24.6,12.4,100,80,42,29.94,29.88,6,0,6,0.01
2014-1-18,29.2,26.0,22.4,27.2,24.3,20.3,96,93,92,29.93,29.65,9,1,9,0.00
2014-1-19,30.0,25.8,24.1,27.0,20.9,14.9,100,83,66,29.70,29.49,5,0,5,0.01
2014-1-20,35.9,25.0,5.6,28.1,16.3,-5.5,88,70,59,29.87,29.47,14,2,14,0.08
2014-1-21,9.1,4.7,-0.4,-4.9,-9.3,-11.6,60,52,43,30.05,29.87,7,2,7,0.00
2014-1-22,11.4,3.1,-2.2,-1.3,-9.8,-14.3,62,55,41,29.96,29.67,9,2,9,0.00
2014-1-23,13.8,4.3,-1.6,-4.6,-10.6,-14.0,59,50,37,30.10,29.87,12,3,12,0.00
2014-1-24,10.3,3.8,-4.9,-2.3,-10.1,-16.1,65,53,34,30.17,30.01,10,2,10,0.00
2014-1-25,27.6,17.4,6.8,19.5,6.8,-5.5,87,63,52,30.01,29.28,6,1,6,0.00
2014-1-26,18.6,11.8,5.3,11.7,-4.9,-15.6,74,48,34,29.83,29.28,17,4,17,0.00
2014-1-27,30.0,18.8,12.2,25.6,5.4,-8.6,88,57,31,29.93,29.50,18,3,18,0.00
2014-1-28,15.7,8.4,1.5,5.0,-7.8,-13.6,65,48,31,30.25,29.93,12,3,12,0.00
2014-1-29,19.6,10.5,1.1,-0.3,-7.6,-16.8,76,47,25,30.21,29.92,12,2,12,0.00
2014-1-30,24.7,12.7,0.7,17.9,2.1,-12.0,82,64,36,30.38,30.15,9,0,9,0.00
2014-1-31,34.7,23.7,12.9,16.8,10.3,1.7,84,58,34,30.18,29.98,7,1,7,0.02
2014-2-1,38.2,28.2,18.4,34.8,20.5,9.7,88,74,45,30.32,30.02,4,0,4,0.03
2014-2-2,37.2,32.9,27.7,36.0,29.0,22.6,100,86,70,30.04,29.84,4,0,4,0.01
2014-2-3,32.9,26.9,16.1,27.5,17.6,9.7,91,68,58,30.26,30.04,10,1,10,0.00
2014-2-4,31.2,21.0,8.8,18.1,9.9,4.7,90,64,37,30.44,30.26,7,1,7,0.00
2014-2-5,24.0,19.5,15.2,18.4,14.2,8.2,91,81,54,30.36,29.73,12,3,12,0.00
2014-2-6,23.4,12.5,1.0,13.2,3.0,-3.8,95,68,41,30.24,29.89,8,2,8,0.10
2014-2-7,26.0,11.5,-7.6,21.5,3.0,-11.0,91,71,39,30.20,30.12,12,2,12,0.04
2014-2-8,23.4,16.1,3.4,5.3,-1.9,-11.9,69,45,32,30.25,30.12,8,2,8,0.02
2014-2-9,26.7,19.8,13.8,18.6,9.5,1.0,91,65,51,30.17,29.93,5,0,5,0.03
2014-2-10,23.6,15.2,0.5,18.7,7.1,-3.9,100,72,45,30.17,29.88,12,2,12,0.00
2014-2-11,19.9,6.5,-8.1,13.2,-3.8,-12.6,91,65,44,30.42,30.17,12,3,12,0.01
2014-2-12,25.7,8.9,-7.4,5.5,-6.3,-14.1,81,54,25,30.54,30.41,4,0,4,0.00
2014-2-13,29.5,16.6,3.0,26.5,12.3,-5.3,92,83,62,30.41,29.21,21,5,21,0.00
2014-2-14,30.5,27.5,23.7,29.6,22.4,14.7,100,82,65,29.64,28.85,18,4,18,0.01
2014-2-15,31.1,24.0,16.1,28.5,21.0,13.6,96,88,77,29.85,29.52,8,1,8,0.00
2014-2-16,25.8,18.3,9.6,19.9,3.7,-10.0,78,54,37,29.96,29.52,18,6,18,0.00
2014-2-17,21.2,11.6,0.0,-4.5,-8.6,-15.3,61,40,30,30.34,29.96,14,4,14,0.00
2014-2-18,20.9,9.5,-4.2,19.2,4.6,-10.6,96,81,65,30.34,29.95,7,2,7,0.00
2014-2-19,27.1,20.3,8.4,24.9,17.8,6.2,96,90,71,30.06,29.76,4,0,4,0.00
2014-2-20,44.7,33.0,21.9,36.6,24.7,14.3,100,75,35,30.21,29.78,7,1,7,0.01
2014-2-21,33.7,31.4,27.6,33.4,30.5,26.6,100,96,92,30.15,29.73,8,2,8,0.29
2014-2-22,46.0,34.5,21.7,31.1,22.4,13.2,100,66,35,29.90,29.79,16,2,16,0.22
2014-2-23,46.2,35.5,26.9,33.4,20.2,2.1,91,58,30,29.95,29.76,15,2,15,0.02
2014-2-24,34.0,24.8,14.4,29.5,7.7,0.2,84,49,36,29.91,29.72,20,6,20,0.01
2014-2-25,21.7,14.6,6.8,2.8,-1.2,-8.1,66,49,39,29.94,29.85,15,2,15,0.00
2014-2-26,24.7,9.9,-1.6,15.6,-1.8,-14.0,87,62,32,29.91,29.74,14,2,14,0.00
2014-2-27,24.2,11.6,1.2,4.8,-1.8,-7.0,86,57,33,29.85,29.56,14,2,14,0.00
2014-2-28,18.7,8.4,-0.9,-0.8,-11.6,-17.0,75,41,24,30.41,29.82,12,2,12,0.00
2014-3-1,27.0,13.8,-4.9,12.5,-0.8,-9.1,82,56,31,30.43,30.07,6,0,6,0.00
2014-3-2,28.7,24.2,15.0,19.4,10.9,1.3,68,57,50,30.07,29.99,7,2,7,0.00
2014-3-3,17.6,11.4,2.3,1.3,-6.3,-17.2,60,45,27,30.22,30.01,13,3,13,0.00
2014-3-4,27.4,12.9,-6.4,6.3,-5.5,-16.4,82,47,23,30.36,30.21,6,1,6,0.00
2014-3-5,22.1,15.6,6.1,14.5,7.9,-5.8,87,72,56,30.41,30.24,9,2,9,0.01
2014-3-6,29.9,12.6,-6.5,0.3,-9.4,-16.9,82,42,15,30.64,30.41,4,0,4,0.01
2014-3-7,36.2,17.1,-5.1,17.2,5.0,-8.6,86,62,34,30.52,30.04,6,0,6,0.00
2014-3-8,46.4,26.8,9.7,27.1,15.0,4.7,91,64,38,30.04,29.70,13,2,13,0.00
2014-3-9,32.8,25.4,19.2,11.4,6.2,-3.9,59,45,26,29.94,29.86,13,3,13,0.00
2014-3-10,36.4,27.8,20.0,26.5,17.8,5.0,92,67,48,29.89,29.65,4,0,4,0.04
2014-3-11,49.2,35.3,26.7,42.7,26.6,15.2,100,75,35,29.71,29.48,10,1,10,0.09
2014-3-12,32.2,30.1,26.8,31.2,28.4,24.4,100,93,85,29.71,29.10,12,2,12,0.90
2014-3-13,29.0,15.1,8.1,28.9,6.6,-9.1,100,69,43,29.88,29.07,15,5,15,0.00
2014-3-14,31.0,19.6,4.6,13.1,1.6,-12.1,72,45,39,30.12,29.88,9,2,9,0.07
2014-3-15,48.7,36.1,25.8,38.6,22.1,11.0,72,57,45,29.88,29.64,15,3,15,0.03
2014-3-16,32.2,20.5,10.6,14.2,3.4,-10.1,80,49,31,30.20,29.83,17,6,17,0.00
2014-3-17,24.2,14.2,5.2,0.9,-7.3,-14.1,49,38,26,30.20,30.04,12,3,12,0.00
2014-3-18,34.9,19.3,2.2,11.7,-2.6,-14.9,83,44,13,30.34,30.10,7,2,7,0.00
2014-3-19,37.2,26.0,12.3,31.2,17.7,8.4,91,72,47,30.39,30.12,12,2,12,0.00
2014-3-20,42.7,33.3,27.4,36.3,25.9,17.1,100,77,46,30.12,29.59,15,2,15,0.45
2014-3-21,36.7,30.6,20.8,21.3,16.3,7.5,68,55,45,29.97,29.69,17,4,17,0.02
2014-3-22,38.7,27.6,15.9,33.5,18.4,10.7,96,70,48,30.03,29.64,13,2,13,0.01
2014-3-23,33.1,25.7,11.2,23.8,11.0,-8.3,77,55,32,30.08,29.90,17,4,17,0.00
2014-3-24,24.5,14.9,5.5,0.8,-3.8,-9.6,60,44,30,30.15,30.03,13,4,13,0.00
2014-3-25,33.9,18.4,0.7,14.7,5.0,-9.1,83,59,35,30.12,29.97,10,2,10,0.00
2014-3-26,29.2,23.0,16.1,12.5,7.1,-1.5,65,51,35,29.98,29.65,26,8,26,0.00
2014-3-27,39.1,24.8,12.8,10.9,0.6,-6.3,46,35,19,30.30,29.95,17,4,17,0.00
2014-3-28,39.4,33.6,28.3,38.1,26.0,10.9,100,75,43,30.21,29.92,7,1,7,0.24
2014-3-29,46.2,38.7,31.3,39.0,32.8,27.6,100,80,60,30.26,29.97,9,2,9,0.23
2014-3-30,35.7,33.3,31.4,32.6,30.7,28.9,96,90,82,30.07,29.70,22,8,22,1.19
2014-3-31,40.9,33.7,29.9,33.3,27.2,21.6,96,78,57,30.03,29.74,16,5,16,0.19
2014-4-1,50.2,37.6,26.3,29.0,22.2,15.9,74,55,33,30.10,30.00,9,3,9,0.00
2014-4-2,51.2,37.3,25.1,31.9,25.1,15.9,95,64,39,30.11,30.00,6,1,6,0.00
2014-4-3,44.6,34.4,23.8,32.4,20.1,7.9,92,61,31,30.12,30.04,14,3,14,0.00
2014-4-4,45.8,33.1,22.6,30.3,21.4,16.1,95,65,36,30.17,29.95,10,2,10,0.22
2014-4-5,45.5,35.7,30.4,40.7,27.1,15.7,100,74,43,29.95,29.68,12,4,12,0.17
2014-4-6,49.0,37.4,28.0,19.8,14.5,6.6,68,42,20,30.16,29.90,14,4,14,0.00
2014-4-7,56.2,40.3,24.8,30.0,19.9,7.7,84,50,23,30.22,29.98,7,1,7,0.04
2014-4-8,49.8,41.3,35.9,44.9,37.4,25.1,100,87,62,29.98,29.28,8,3,8,0.52
2014-4-9,44.2,38.7,27.2,34.4,19.0,-3.7,73,49,21,29.92,29.47,16,5,16,0.00
2014-4-10,59.5,41.7,21.7,26.3,16.7,2.7,80,43,15,30.12,29.92,12,2,12,0.00
2014-4-11,66.7,52.4,40.9,37.4,28.7,17.5,65,43,20,30.02,29.89,12,3,12,0.02
2014-4-12,63.9,46.6,29.4,43.8,27.9,15.2,100,57,22,30.20,29.99,14,2,14,0.01
2014-4-13,43.6,38.1,35.5,37.9,31.3,21.7,92,77,55,30.28,30.05,9,2,9,0.21
2014-4-14,74.3,53.3,33.6,52.2,40.2,32.3,100,66,30,30.05,29.80,20,3,20,0.00
2014-4-15,61.4,55.6,33.2,58.1,51.0,29.8,96,85,64,29.85,29.50,12,4,12,0.42
2014-4-16,34.9,28.2,21.5,30.8,14.3,3.8,100,58,33,30.59,29.70,15,5,15,0.08
2014-4-17,45.2,30.8,18.4,23.9,14.0,7.0,91,54,25,30.81,30.59,13,2,13,0.00
2014-4-18,47.9,33.4,20.2,39.2,23.2,16.8,91,69,43,30.70,30.26,8,1,8,0.00
2014-4-19,52.5,38.8,26.5,38.0,25.1,15.3,92,62,32,30.41,30.16,18,4,18,0.00
2014-4-20,57.6,41.9,24.6,51.6,23.0,10.2,91,57,17,30.48,30.34,8,2,8,0.00
2014-4-21,72.0,50.8,28.2,37.3,19.8,5.4,84,39,10,30.34,29.82,9,1,9,0.00
2014-4-22,71.8,56.1,43.3,56.9,34.4,11.2,86,47,22,29.82,29.45,7,1,7,0.02
2014-4-23,51.5,45.0,40.3,50.0,37.1,27.1,100,76,52,29.61,29.42,18,5,18,0.01
2014-4-24,49.9,42.2,34.2,27.6,20.9,15.0,59,43,29,29.92,29.61,25,10,25,0.00
2014-4-25,61.7,48.6,33.9,29.3,21.5,9.5,66,37,21,30.00,29.79,9,3,9,0.00
2014-4-26,47.8,41.0,36.7,38.1,33.7,26.1,96,77,49,29.87,29.77,6,1,6,0.06
2014-4-27,49.9,40.3,34.9,43.6,34.4,29.3,96,80,60,30.05,29.85,14,2,14,0.09
2014-4-28,56.7,45.9,34.9,40.6,33.8,28.5,91,64,43,30.23,30.00,12,4,12,0.00
2014-4-29,51.1,42.2,37.1,37.4,31.7,27.3,85,67,49,30.53,30.23,16,6,16,0.00
2014-4-30,42.1,37.8,35.5,38.8,34.3,30.2,95,87,79,30.54,30.21,8,3,8,0.28
2014-5-1,59.7,44.5,35.4,51.9,41.2,34.1,100,89,65,30.21,29.66,8,2,8,0.64
2014-5-2,62.9,50.4,39.5,50.3,36.2,22.8,100,63,35,29.80,29.66,20,3,20,0.01
2014-5-3,64.3,50.2,36.9,49.9,37.3,27.3,100,66,35,29.85,29.71,10,1,10,0.03
2014-5-4,58.7,47.2,42.3,49.5,36.6,26.6,100,70,44,29.72,29.52,13,4,13,0.06
2014-5-5,56.7,47.9,41.3,43.5,35.0,28.3,85,62,43,29.87,29.60,13,4,13,0.00
2014-5-6,59.2,47.3,35.0,48.0,28.3,15.1,96,54,21,30.03,29.84,16,4,16,0.00
2014-5-7,64.6,49.2,31.5,37.2,24.2,13.2,85,44,15,30.17,30.03,10,2,10,0.00
2014-5-8,71.7,53.5,32.2,52.5,29.7,16.3,92,49,15,30.20,30.05,8,1,8,0.00
2014-5-9,51.9,48.3,43.3,44.3,36.1,25.9,100,66,39,30.26,30.11,12,3,12,0.01
2014-5-10,74.8,56.8,43.3,68.2,51.4,41.2,100,85,41,30.11,29.71,7,1,7,0.06
2014-5-11,74.1,62.6,48.3,56.5,31.2,18.1,75,35,14,30.01,29.76,13,4,13,0.00
2014-5-12,82.3,62.9,39.9,55.1,37.0,26.8,91,46,19,30.09,29.98,13,3,13,0.00
2014-5-13,54.8,50.5,47.5,43.1,39.5,28.3,73,66,57,30.33,30.08,12,2,12,0.00
2014-5-14,70.7,55.2,45.5,45.8,38.1,24.8,82,56,31,30.33,30.26,8,1,8,0.00
2014-5-15,73.3,59.1,46.8,58.7,50.2,43.2,89,74,50,30.29,30.17,8,1,8,0.00
2014-5-16,69.6,60.9,57.6,60.9,57.3,53.0,100,88,65,30.19,29.97,9,2,9,0.06
2014-5-17,69.5,59.7,44.4,59.9,44.4,21.8,100,64,23,30.06,29.82,8,3,8,0.71
2014-5-18,67.3,53.5,38.1,50.3,31.7,12.5,95,51,22,30.12,30.01,9,3,9,0.00
2014-5-19,61.7,49.9,40.8,44.3,32.6,10.5,92,55,22,30.10,30.01,16,3,16,0.06
2014-5-20,70.5,55.4,41.6,50.3,34.3,10.7,100,53,22,30.04,29.93,18,3,18,0.01
2014-5-21,72.2,56.9,40.2,50.0,40.5,8.5,96,60,22,30.01,29.89,6,1,6,0.00
2014-5-22,65.3,54.1,46.3,58.4,50.0,22.0,96,87,25,29.96,29.86,5,1,5,0.06
2014-5-23,52.4,50.6,48.9,51.5,49.5,47.3,100,96,92,30.00,29.87,4,1,4,0.50
2014-5-24,66.8,53.1,47.7,61.1,48.9,33.0,96,87,48,30.06,29.97,12,1,12,0.20
2014-5-25,69.0,55.1,46.1,59.7,48.7,38.8,100,81,45,30.09,29.98,9,0,9,0.04
2014-5-26,73.3,61.1,47.6,59.8,48.0,34.8,100,67,37,29.98,29.78,10,1,10,0.00
2014-5-27,67.0,53.2,42.9,59.0,46.5,31.4,96,81,41,29.99,29.80,9,1,9,0.16
2014-5-28,49.6,45.5,41.1,44.8,42.1,37.2,96,88,76,30.19,29.96,7,2,7,0.05
2014-5-29,64.9,51.3,38.5,47.7,37.6,31.3,100,65,30,30.27,30.12,5,1,5,0.00
2014-5-30,70.8,52.9,40.2,52.9,43.6,34.5,96,74,41,30.15,30.00,4,0,4,0.03
2014-5-31,64.9,54.0,45.1,54.8,46.1,37.6,100,77,53,30.31,30.05,7,1,7,0.01
2014-6-1,73.7,57.3,38.1,56.0,40.1,30.8,100,62,24,30.36,30.20,4,0,4,0.00
2014-6-2,80.5,62.7,42.9,50.7,39.9,22.6,96,47,24,30.22,29.98,2,0,2,0.00
2014-6-3,79.8,63.5,50.6,60.2,49.6,38.0,96,64,30,30.01,29.90,9,1,9,0.00
2014-6-4,58.2,55.2,52.5,53.0,49.0,42.3,96,80,66,29.95,29.78,1,0,1,0.00
2014-6-5,60.4,55.1,51.1,57.4,52.7,48.2,100,92,72,29.81,29.68,6,0,6,0.02
2014-6-6,69.3,60.0,51.7,55.2,49.7,43.6,100,72,46,29.88,29.70,12,2,12,0.01
2014-6-7,78.2,64.6,49.8,55.2,48.8,40.3,96,61,32,29.94,29.87,2,0,2,0.00
2014-6-8,80.7,65.7,49.5,55.4,48.4,41.0,86,59,27,29.96,29.85,0,0,0,0.00
2014-6-9,82.1,66.7,55.7,65.9,54.1,42.3,93,67,37,29.97,29.89,1,0,1,0.00
2014-6-10,76.4,63.6,57.7,62.3,54.4,47.3,93,72,61,30.12,29.95,10,2,10,0.03
2014-6-11,69.3,58.2,46.9,53.2,48.6,43.1,100,73,43,30.19,30.12,5,1,5,0.00
2014-6-12,60.7,55.9,51.6,53.4,50.5,47.5,96,82,72,30.18,30.09,5,1,5,0.11
2014-6-13,56.9,54.8,53.5,55.8,53.2,51.0,96,94,90,30.09,29.83,9,2,9,0.08
2014-6-14,69.4,59.8,53.4,60.8,51.9,42.6,96,77,47,29.92,29.82,7,2,7,0.06
2014-6-15,69.5,60.2,49.2,53.3,45.5,37.6,92,60,39,30.07,29.92,12,3,12,0.00
2014-6-16,77.3,60.7,44.9,61.0,44.3,28.4,92,62,23,30.16,30.01,4,0,4,0.00
2014-6-17,84.6,68.3,54.5,62.1,55.3,47.3,93,65,46,30.05,29.85,4,0,4,0.00
2014-6-18,74.5,68.5,63.5,70.9,62.6,45.6,89,82,48,29.93,29.73,12,3,12,0.06
2014-6-19,74.2,66.2,55.2,59.3,43.8,30.9,86,48,25,29.98,29.92,12,3,12,0.00
2014-6-20,66.3,56.5,46.8,53.1,39.3,26.8,95,57,35,29.99,29.94,12,2,12,0.00
2014-6-21,70.8,55.1,40.9,47.5,39.5,32.0,96,61,32,29.99,29.88,7,2,7,0.00
2014-6-22,71.7,57.4,40.5,49.0,43.4,34.9,96,64,43,30.04,29.93,5,1,5,0.00
2014-6-23,77.5,63.1,46.1,55.5,48.2,42.2,96,62,35,30.14,30.04,4,1,4,0.00
2014-6-24,76.1,66.0,55.3,58.5,49.5,43.5,74,57,42,30.14,29.98,6,1,6,0.00
2014-6-25,78.6,67.5,61.1,67.3,57.9,51.1,100,73,49,29.98,29.84,4,0,4,0.24
2014-6-26,67.0,64.0,58.7,65.6,58.7,50.4,100,83,73,30.02,29.79,4,1,4,0.09
2014-6-27,79.3,64.5,55.5,59.2,51.1,40.3,100,68,32,30.20,30.02,0,0,0,0.01
2014-6-28,80.4,65.3,49.7,58.4,44.5,22.6,96,55,26,30.28,30.21,0,0,0,0.00
2014-6-29,81.0,66.8,50.5,60.4,52.5,22.6,96,64,34,30.27,30.06,0,0,0,0.00
2014-6-30,84.6,71.5,57.7,63.5,56.0,45.6,93,61,43,30.09,29.95,5,0,5,0.00
2014-7-1,84.3,74.1,61.7,67.5,62.7,44.6,96,70,43,29.95,29.76,5,1,5,0.00
2014-7-2,88.7,73.4,64.9,73.6,63.6,52.8,87,72,61,29.87,29.77,4,0,4,0.00
2014-7-3,80.8,70.1,62.6,72.3,64.9,52.3,100,84,65,30.02,29.82,8,0,8,0.00
2014-7-4,66.7,63.5,56.4,65.3,62.0,54.4,100,95,90,30.02,29.92,7,0,7,0.00
2014-7-5,74.8,63.6,53.7,54.4,45.0,33.8,93,55,32,29.99,29.81,17,4,17,0.01
2014-7-6,79.9,68.5,57.0,54.4,44.9,28.0,77,45,29,29.98,29.86,6,2,6,0.01
2014-7-7,81.1,68.4,56.6,69.8,55.7,26.3,96,67,29,29.86,29.68,5,1,5,0.00
2014-7-8,82.6,72.1,62.0,68.1,62.4,56.3,100,74,53,29.78,29.69,4,1,4,0.00
2014-7-9,80.1,70.0,61.0,65.6,57.0,43.9,93,66,41,29.93,29.65,0,0,0,0.00
2014-7-10,74.1,64.6,54.8,59.1,47.2,24.7,96,58,31,30.10,29.93,0,0,0,0.00
2014-7-11,74.8,62.5,50.4,55.6,45.5,21.5,96,57,31,30.25,30.08,0,0,0,0.00
2014-7-12,78.8,65.9,51.3,61.4,52.6,47.9,100,66,39,30.23,30.10,0,0,0,0.01
2014-7-13,80.2,68.8,59.7,65.4,57.6,45.3,93,68,53,30.10,29.87,1,0,1,0.00
2014-7-14,81.4,72.2,64.8,68.8,63.5,55.4,100,77,46,29.90,29.83,0,0,0,0.00
2014-7-15,79.3,70.2,65.5,71.1,66.1,56.9,97,87,60,29.84,29.75,0,0,0,0.00
2014-7-16,71.3,66.5,61.7,66.1,62.9,56.5,100,89,68,29.84,29.75,0,0,0,0.00
2014-7-17,74.3,64.7,55.5,60.5,52.4,42.1,96,68,39,30.06,29.84,0,0,0,0.00
2014-7-18,74.6,62.6,50.3,58.2,51.0,41.2,100,71,36,30.24,30.06,0,0,0,0.00
2014-7-19,73.7,62.5,51.0,59.4,55.1,49.8,96,78,53,30.29,30.23,0,0,0,0.00
2014-7-20,73.5,63.7,55.2,60.2,53.6,45.6,96,73,40,30.24,30.16,0,0,0,0.00
2014-7-21,75.8,64.5,52.0,61.4,52.9,46.8,100,71,37,30.22,30.13,0,0,0,0.01
2014-7-22,82.5,69.4,57.2,64.8,59.3,53.9,96,73,45,30.16,29.98,0,0,0,0.00
2014-7-23,86.4,72.8,64.7,71.0,63.3,52.8,100,75,48,29.98,29.72,12,0,12,0.00
2014-7-24,74.3,65.6,53.4,66.4,55.1,43.3,100,72,43,29.90,29.77,1,0,1,0.00
2014-7-25,75.0,61.8,47.7,58.3,50.8,45.3,96,71,40,29.99,29.90,0,0,0,0.00
2014-7-26,76.9,64.1,52.6,67.1,52.9,42.3,96,71,37,29.97,29.85,0,0,0,0.00
2014-7-27,69.8,63.0,54.7,65.2,59.8,53.0,96,90,78,29.89,29.66,0,0,0,0.00
2014-7-28,71.3,64.2,60.8,65.3,60.4,48.5,100,88,60,29.68,29.44,0,0,0,0.00
2014-7-29,69.7,61.3,52.5,59.3,49.6,39.7,96,69,40,29.95,29.54,0,0,0,0.00
2014-7-30,70.8,60.2,51.0,55.9,50.6,40.9,96,74,39,30.04,29.95,0,0,0,0.00
2014-7-31,72.1,60.7,50.6,67.9,55.2,45.9,100,84,51,30.15,30.04,0,0,0,0.00
2014-8-1,76.2,65.2,55.2,70.9,60.8,54.8,100,87,60,30.23,30.15,0,0,0,0.00
2014-8-2,71.5,65.0,56.4,69.0,59.5,51.4,100,84,57,30.22,30.14,0,0,0,0.00
2014-8-3,72.6,62.4,52.5,62.0,56.9,51.4,100,84,62,30.15,30.05,0,0,0,0.00
2014-8-4,78.1,66.7,58.9,75.6,59.7,50.6,100,82,44,30.06,29.99,0,0,0,0.00
2014-8-5,79.8,66.1,56.4,68.7,58.0,51.4,100,78,49,30.04,29.91,0,0,0,0.00
2014-8-6,73.7,65.8,56.9,70.5,55.0,42.9,96,72,36,29.92,29.80,0,0,0,0.01
2014-8-7,71.1,58.6,50.8,58.8,51.0,44.6,96,77,49,29.95,29.87,7,0,7,0.00
2014-8-8,73.6,62.9,50.3,65.7,52.7,45.6,100,73,40,30.04,29.95,0,0,0,0.00
2014-8-9,77.8,65.3,53.4,59.3,52.1,42.3,96,68,31,30.10,30.03,0,0,0,0.00
2014-8-10,79.2,64.6,51.0,67.0,53.5,42.8,96,72,33,30.15,30.08,0,0,0,0.00
2014-8-11,79.7,66.4,54.9,61.9,56.0,47.8,100,74,37,30.16,30.08,0,0,0,0.00
2014-8-12,76.3,66.2,56.9,65.0,58.3,52.3,96,77,48,30.13,30.04,0,0,0,0.06
2014-8-13,64.8,60.9,56.6,61.3,58.7,54.7,100,93,87,30.05,29.64,13,2,13,1.69
2014-8-14,68.0,59.2,49.7,57.6,48.8,33.6,100,72,39,29.87,29.66,1,0,2,0.00
2014-8-15,65.1,55.9,48.3,52.1,46.6,41.1,96,73,48,29.91,29.85,0,0,0,0.00
2014-8-16,69.9,59.7,50.8,53.6,47.6,37.1,96,67,42,29.96,29.90,0,0,0,0.00
2014-8-17,68.4,59.5,53.5,56.1,51.2,44.1,100,76,51,29.90,29.79,0,0,0,0.02
2014-8-18,66.5,58.7,50.9,55.2,47.1,34.8,100,69,42,29.89,29.80,0,0,0,0.00
2014-8-19,72.1,58.3,43.9,54.6,46.9,36.3,96,70,38,29.96,29.88,0,0,0,0.00
2014-8-20,74.7,61.5,48.4,59.5,50.7,45.1,96,71,41,30.07,29.96,0,0,0,0.00
2014-8-21,68.2,57.5,51.2,59.9,53.7,48.9,100,88,67,30.12,30.07,0,0,0,0.27
2014-8-22,63.6,58.3,53.1,58.9,53.8,50.1,100,86,72,30.14,30.11,0,0,0,0.16
2014-8-23,69.8,61.2,53.2,58.0,53.4,48.7,100,77,55,30.15,30.12,0,0,0,0.00
2014-8-24,74.5,62.6,51.1,61.9,52.7,43.4,100,75,39,30.17,30.11,0,0,0,0.00
2014-8-25,81.0,66.7,54.2,63.4,54.6,43.1,96,71,33,30.18,30.10,0,0,0,0.00
2014-8-26,80.8,67.9,55.7,63.2,56.8,46.2,100,72,37,30.17,30.03,0,0,0,0.00
2014-8-27,81.5,69.7,58.7,65.3,60.2,56.1,96,74,51,30.03,29.84,7,0,7,0.28
2014-8-28,69.5,62.9,55.6,60.4,48.8,39.9,84,62,41,29.96,29.83,1,0,1,0.09
2014-8-29,71.3,61.0,50.0,56.8,49.9,40.6,96,69,43,30.26,29.96,0,0,0,0.00
2014-8-30,71.8,61.6,50.5,59.5,52.1,44.6,100,74,44,30.29,30.12,0,0,0,0.00
2014-8-31,79.0,66.7,57.0,67.4,60.7,53.3,100,82,62,30.12,29.93,1,0,1,0.89
2014-9-1,79.6,70.1,62.1,69.1,61.9,48.9,100,79,47,29.99,29.91,1,0,1,0.01
2014-9-2,80.6,69.7,60.0,72.6,64.7,54.2,100,85,58,29.93,29.73,0,0,0,0.39
2014-9-3,74.2,67.3,56.5,69.1,54.6,43.6,96,67,37,30.07,29.70,0,0,0,0.04
2014-9-4,76.2,64.7,51.9,63.5,54.5,48.5,96,73,40,30.20,30.07,0,0,0,0.00
2014-9-5,81.1,69.5,57.6,66.8,60.3,56.5,96,75,46,30.15,29.96,4,0,4,0.00
2014-9-6,79.6,69.8,62.5,69.5,62.1,54.3,100,78,58,29.95,29.76,18,0,18,0.04
2014-9-7,69.6,62.3,51.0,61.3,49.0,37.5,96,66,34,30.21,29.92,0,0,0,0.00
2014-9-8,69.5,57.6,46.5,54.0,47.0,41.6,96,71,40,30.39,30.21,0,0,0,0.00
2014-9-9,65.9,55.5,46.0,55.2,46.8,40.5,96,75,43,30.40,30.25,0,0,0,0.00
2014-9-10,65.6,57.0,50.2,57.3,51.5,47.9,96,83,58,30.25,30.04,0,0,0,0.00
2014-9-11,66.5,60.7,53.7,64.1,57.3,51.3,100,89,75,30.05,29.76,7,0,7,0.01
2014-9-12,59.9,53.4,42.5,50.8,40.9,35.0,80,64,44,30.26,29.86,8,2,8,0.00
2014-9-13,54.2,47.9,38.7,49.9,43.0,35.6,96,84,66,30.31,30.13,4,0,4,0.13
2014-9-14,55.0,47.4,38.4,48.8,37.9,31.3,100,72,43,30.24,30.11,9,2,9,0.01
2014-9-15,59.8,47.7,34.8,44.2,37.7,28.3,96,72,38,30.26,30.10,2,0,2,0.00
2014-9-16,57.4,49.9,46.1,51.3,46.3,41.8,100,88,67,30.10,29.95,2,0,2,0.14
2014-9-17,62.5,51.0,40.9,53.5,42.7,30.1,100,78,37,30.03,29.94,5,0,5,0.00
2014-9-18,64.6,49.2,38.5,50.6,39.9,31.0,100,73,42,30.14,29.93,7,1,7,0.00
2014-9-19,52.7,42.5,31.1,39.4,28.3,17.9,96,63,30,30.41,30.14,5,1,5,0.00
2014-9-20,61.6,47.4,31.7,51.9,40.6,28.0,92,78,61,30.41,30.08,4,0,4,0.00
2014-9-21,71.2,61.5,50.4,66.3,58.6,47.6,100,91,73,30.08,29.56,4,0,4,0.00
2014-9-22,64.3,57.8,44.7,64.2,44.3,29.6,100,64,35,30.06,29.51,13,3,13,0.00
2014-9-23,63.7,51.9,39.9,47.9,38.5,31.9,96,63,35,30.41,30.06,6,1,6,0.00
2014-9-24,62.9,51.7,41.2,51.5,43.1,34.3,100,76,46,30.64,30.41,2,0,2,0.00
2014-9-25,59.3,49.9,43.6,51.8,45.3,38.6,100,86,57,30.59,30.29,1,0,1,0.00
2014-9-26,69.3,55.1,42.5,58.4,47.7,41.1,100,80,43,30.29,30.14,0,0,0,0.00
2014-9-27,76.9,60.8,45.8,61.0,51.2,42.9,100,75,42,30.20,30.13,0,0,0,0.00
2014-9-28,78.3,63.0,48.7,70.8,54.9,47.4,100,80,41,30.17,29.98,0,0,0,0.00
2014-9-29,67.8,59.5,54.5,61.7,53.9,47.4,100,83,49,30.05,29.96,6,0,6,0.00
2014-9-30,58.9,55.9,52.7,56.7,51.9,48.8,96,87,74,30.06,30.01,4,0,4,0.00
2014-10-1,57.6,55.1,53.5,55.8,52.5,49.4,96,91,83,30.15,30.05,6,2,6,0.03
2014-10-2,61.8,54.2,42.8,56.6,50.0,41.4,100,86,62,30.19,30.14,5,1,5,0.00
2014-10-3,61.5,50.8,40.1,55.0,43.8,38.6,100,80,44,30.18,29.92,4,1,4,0.00
2014-10-4,56.2,53.0,49.4,56.2,52.0,48.3,100,96,87,29.92,29.53,7,1,7,0.32
2014-10-5,56.2,48.8,36.0,54.9,37.0,20.8,96,68,33,29.93,29.54,10,1,10,0.09
2014-10-6,59.5,45.9,30.4,50.2,36.9,28.8,100,75,36,30.14,29.93,1,0,1,0.00
2014-10-7,64.1,55.2,45.4,58.9,49.2,43.1,100,82,52,30.15,29.97,7,1,7,0.17
2014-10-8,65.1,58.3,50.6,57.9,48.0,29.8,96,71,38,29.98,29.69,8,2,8,0.09
2014-10-9,57.4,48.9,41.2,40.4,30.5,20.6,82,52,27,29.95,29.84,10,2,10,0.00
2014-10-10,56.6,44.9,33.8,42.5,32.9,26.6,92,66,37,30.13,29.95,5,0,5,0.00
2014-10-11,51.7,41.0,35.1,45.8,36.5,29.4,96,85,50,30.14,30.06,2,0,2,0.00
2014-10-12,54.2,41.2,29.0,42.6,32.7,24.1,100,76,37,30.30,30.13,6,1,6,0.00
2014-10-13,54.4,43.7,27.9,48.6,37.5,26.7,100,81,61,30.36,30.25,4,0,4,0.00
2014-10-14,70.8,59.1,50.0,60.5,52.7,44.1,93,80,61,30.25,30.14,5,0,5,0.00
2014-10-15,70.9,64.0,58.2,61.7,57.3,51.3,96,80,57,30.14,30.00,4,0,4,0.01
2014-10-16,65.4,63.6,60.6,63.2,61.3,58.6,96,92,86,30.00,29.68,8,1,8,1.06
2014-10-17,65.7,58.7,52.2,59.2,49.5,32.1,100,75,43,29.68,29.59,7,1,7,0.05
2014-10-18,59.3,53.2,47.8,54.3,47.4,39.1,96,82,59,29.65,29.49,8,0,8,0.03
2014-10-19,51.7,43.3,36.6,44.0,29.8,19.4,79,60,42,29.94,29.58,14,4,14,0.01
2014-10-20,50.9,40.4,30.4,32.3,24.7,18.4,66,54,39,30.03,29.94,7,1,7,0.00
2014-10-21,47.8,44.5,40.5,45.0,40.8,29.5,96,87,65,30.04,29.95,12,2,12,0.01
2014-10-22,47.7,44.9,43.6,44.3,41.9,30.4,96,89,56,30.11,29.93,17,8,17,0.00
2014-10-23,47.9,45.3,42.9,46.8,43.2,40.6,100,92,85,29.93,29.71,20,7,20,0.10
2014-10-24,47.2,44.9,43.0,45.0,40.8,36.0,96,86,76,29.75,29.70,7,1,7,0.00
2014-10-25,60.1,48.2,37.9,43.2,35.4,26.9,96,64,31,29.75,29.49,7,1,7,0.01
2014-10-26,51.7,44.0,38.7,44.0,35.4,27.4,96,73,52,29.67,29.40,10,2,10,0.00
2014-10-27,53.2,44.3,36.0,41.1,32.8,24.1,92,66,42,30.02,29.67,12,3,12,0.00
2014-10-28,53.9,44.4,36.2,42.4,37.6,31.2,100,79,46,30.08,29.94,6,1,6,0.00
2014-10-29,53.2,46.8,42.4,48.4,44.3,36.3,100,92,63,29.94,29.80,4,0,4,0.05
2014-10-30,53.1,40.1,31.4,44.2,33.5,19.6,100,80,50,30.00,29.86,8,1,8,0.00
2014-10-31,47.4,39.5,32.3,38.1,31.3,26.3,96,74,49,30.06,30.00,5,0,5,0.00
2014-11-1,39.7,36.5,31.6,36.6,33.7,30.3,96,90,76,30.01,29.88,12,4,12,0.05
2014-11-2,37.1,34.9,32.2,30.8,21.0,7.2,85,59,32,29.89,29.68,20,8,20,0.01
2014-11-3,45.7,35.2,28.1,26.4,9.6,-3.5,78,38,14,30.05,29.80,13,4,13,0.00
2014-11-4,50.2,39.7,25.6,37.5,27.3,19.6,88,63,39,30.12,30.00,4,0,4,0.00
2014-11-5,56.4,43.2,30.9,50.9,33.9,20.1,95,74,31,30.11,29.93,13,1,13,0.00
2014-11-6,43.7,37.5,29.6,39.3,34.0,26.4,96,88,72,30.11,29.55,8,1,8,0.23
2014-11-7,40.2,36.7,32.6,38.3,30.4,18.5,95,79,56,29.76,29.47,14,4,14,0.03
2014-11-8,40.9,34.2,29.5,22.7,17.3,9.6,60,50,33,29.94,29.76,13,2,13,0.00
2014-11-9,51.4,38.3,26.1,37.4,27.5,20.5,92,66,42,29.99,29.85,8,1,8,0.00
2014-11-10,48.9,34.9,25.9,35.4,28.1,22.1,96,79,43,30.20,29.99,4,0,4,0.00
2014-11-11,55.5,41.0,27.6,47.3,36.5,25.6,96,85,66,30.19,29.97,4,0,4,0.00
2014-11-12,54.2,46.8,36.1,50.6,42.3,23.1,100,85,59,30.00,29.83,8,1,8,0.02
2014-11-13,41.8,35.5,27.3,31.9,21.2,15.0,96,59,38,30.07,29.96,6,1,6,0.01
2014-11-14,38.3,31.3,25.2,31.2,21.3,8.7,100,70,34,30.06,29.90,15,2,15,0.02
2014-11-15,33.7,25.7,18.9,19.0,12.1,4.3,84,58,37,30.31,30.06,13,2,13,0.00
2014-11-16,35.4,27.7,17.1,24.0,17.6,12.9,91,68,46,30.35,30.14,5,1,5,0.00
2014-11-17,33.4,31.1,28.6,32.3,28.2,18.9,100,90,58,30.14,29.44,8,1,8,0.80
2014-11-18,32.6,26.9,19.6,32.5,12.6,-2.5,100,59,33,29.85,29.44,15,4,15,0.00
2014-11-19,30.8,23.9,18.3,10.1,4.0,-1.5,54,42,30,30.09,29.85,10,2,10,0.00
2014-11-20,38.9,27.8,21.2,16.0,10.4,6.9,59,48,37,30.02,29.74,9,2,9,0.00
2014-11-21,26.2,22.2,15.9,9.6,4.2,-2.7,62,46,38,30.36,29.88,15,4,15,0.00
2014-11-22,35.6,25.2,11.6,17.4,7.1,-2.7,83,49,28,30.38,30.01,6,1,6,0.00
2014-11-23,51.0,40.5,32.4,36.5,28.9,17.2,85,64,48,30.11,30.00,6,1,6,0.00
2014-11-24,60.4,49.6,32.0,56.1,45.4,29.5,100,86,70,30.09,29.52,12,2,12,0.44
2014-11-25,58.2,49.6,34.3,50.3,30.3,7.3,85,52,26,30.07,29.62,13,3,13,0.00
2014-11-26,40.1,32.6,28.6,34.5,28.8,23.0,100,87,61,30.21,29.83,5,1,5,0.01
2014-11-29,26.5,21.3,17.2,25.2,15.9,13.3,95,80,60,30.29,29.83,4,0,4,0.00
2014-11-30,39.3,29.9,20.8,35.4,26.2,15.8,96,86,77,30.25,29.99,4,0,4,0.14
2014-12-1,47.2,35.6,29.2,45.0,30.1,18.2,92,81,63,30.43,29.97,10,2,10,0.85
2014-12-2,30.5,25.7,20.6,21.5,14.9,7.5,95,64,50,30.72,30.43,12,4,12,0.00
2014-12-3,34.5,28.5,21.7,32.4,26.1,19.3,100,91,66,30.46,29.85,15,2,15,0.07
2014-12-4,32.7,27.4,14.8,26.0,15.2,3.0,85,61,47,30.54,30.02,16,3,16,0.01
2014-12-5,25.4,19.3,8.8,23.5,15.0,2.9,100,84,65,30.66,30.46,6,2,6,0.00
2014-12-6,32.4,28.8,23.4,31.4,27.8,21.5,100,96,92,30.46,30.14,8,2,8,0.41
2014-12-7,32.2,22.2,8.0,27.6,11.1,-4.8,84,63,37,30.72,30.24,14,4,14,0.03
2014-12-8,22.2,13.9,3.8,16.0,5.1,-5.7,87,69,43,30.80,30.58,7,2,7,0.00
2014-12-9,33.7,28.2,21.5,33.7,25.1,15.4,100,88,77,30.58,29.63,18,8,18,0.16
2014-12-10,35.4,34.2,33.3,34.8,32.9,30.7,100,95,88,29.63,29.44,20,8,20,0.77
2014-12-11,34.2,31.7,28.6,34.2,31.1,26.6,100,98,92,29.74,29.43,5,1,5,0.12
2014-12-12,33.4,29.3,26.8,28.2,25.1,21.4,95,84,71,29.88,29.74,6,2,6,0.01
2014-12-13,34.6,29.1,25.8,26.5,22.1,18.7,84,75,72,29.86,29.79,9,3,9,0.01
2014-12-14,36.6,30.8,27.7,26.7,23.7,19.0,92,75,66,29.91,29.78,7,2,7,0.00
2014-12-15,35.0,28.5,22.0,26.9,22.5,17.9,95,78,72,30.15,29.90,6,2,6,0.00
2014-12-16,33.0,29.4,23.7,31.1,25.6,20.5,100,86,77,30.16,29.96,2,0,2,0.05
2014-12-17,40.4,34.8,30.9,39.4,33.6,29.0,100,96,81,29.95,29.71,5,2,5,0.57
2014-12-18,35.9,32.6,28.8,30.4,25.6,19.9,88,75,64,29.85,29.69,12,3,12,0.04
2014-12-19,29.7,26.0,19.8,20.9,17.3,12.5,80,69,65,30.14,29.85,12,2,12,0.00
2014-12-20,29.7,23.3,15.2,18.6,14.7,11.4,96,71,51,30.32,30.14,5,1,5,0.00
2014-12-21,28.7,25.7,22.8,25.6,21.7,15.5,92,85,74,30.37,30.29,5,1,5,0.00
2014-12-22,32.4,29.4,26.7,29.1,25.5,22.2,96,85,69,30.40,30.33,6,1,6,0.01
2014-12-23,32.9,31.3,29.6,32.6,30.4,27.9,100,96,92,30.33,30.19,9,3,9,0.70
2014-12-24,35.5,34.0,32.5,35.5,33.5,31.5,100,98,95,30.20,29.57,7,2,7,0.55
2014-12-25,46.7,38.0,33.3,37.4,28.8,18.9,100,73,49,29.90,29.44,26,3,26,0.14
2014-12-26,42.4,36.3,27.2,28.9,23.9,18.6,92,62,49,30.14,29.90,13,3,13,0.00
2014-12-27,44.1,33.5,26.4,35.6,24.2,12.7,96,71,51,30.19,30.00,8,1,8,0.00
2014-12-28,43.7,37.5,32.3,42.4,29.2,20.4,100,73,57,30.00,29.72,9,2,9,0.21
2014-12-29,33.8,26.6,18.1,21.4,12.7,3.8,84,56,35,30.09,29.95,9,2,9,0.00
2014-12-30,20.7,15.6,8.1,10.2,0.0,-8.9,91,53,27,30.35,30.09,8,3,8,0.00
2014-12-31,23.1,12.5,4.7,20.9,1.3,-13.6,91,66,34,30.32,30.17,12,2,12,0.00
2015-1-1,26.5,19.9,9.9,11.5,3.7,-11.8,83,51,34,30.17,29.85,9,2,9,0.00
2015-1-2,30.6,23.5,16.8,21.8,7.3,-5.7,71,51,36,30.10,29.87,14,3,14,0.00